Regional Weather Roundup
Issued by NWS

Home | Current Version | Previous Version | Text Only | Print | Product List | Glossary Off
Versions: 1 2 3 4 5 6 7 8 9 10 11 12 13 14 15 16 17 18 19 20 21 22 23 24 25 26 27 28 29 30 31 32 33 34 35 36 37 38 39 40 41 42 43 44 45 46 47 48 49 50

000
ASUS45 KSLC 210610
RWRUT

UTAH REGIONAL WEATHER ROUNDUP
NATIONAL WEATHER SERVICE SALT LAKE CITY UT
1100 PM MST THU NOV 20 2014

UTZ001>011-023>025-210700-

NORTHERN UTAH

CITY           SKY/WX    TMP DP  RH WIND       PRES   REMARKS
BRIGHAM CITY   PTCLDY    28  23  82 NW5       30.04F WCI  22
HILL AFB       PTCLDY    34  23  63 SE12      30.02F WCI  26
LOGAN          CLEAR     26  22  84 CALM      30.04F
OGDEN          PTCLDY    31  24  75 S3        30.01F
PROVO AIRPORT  CLEAR     25  18  74 CALM      30.03F
SALT LAKE CITY PTCLDY    34  28  79 CALM      30.02F
VERNAL         PTCLDY    28  12  51 NW3       30.06S
WENDOVER       MOCLDY    28  18  64 W5        30.03F WCI  23
HEBER CITY     CLEAR     21  14  73 CALM      30.04F
WEST JORDAN    CLEAR     32  25  74 SW6       30.03F WCI  26

$$

UTZ012>022-026-027-210700-

SOUTHERN/CENTRAL UTAH

CITY           SKY/WX    TMP DP  RH WIND       PRES   REMARKS
BLANDING       CLEAR     29  19  66 N6        30.14R WCI  23
BRYCE CANYON   PTCLDY    19  15  84 SW6       30.08R WCI  11
CEDAR CITY     CLOUDY    37  22  54 SW3       30.00F
DELTA          MOCLDY    33  18  53 NE7       29.98F WCI  27
MILFORD        MOCLDY    33  23  66 S6        30.00S WCI  28
MOAB/CYNLANDS  CLEAR     26   8  46 CALM      30.07F
PRICE          PTCLDY    25  10  53 N7        30.07F WCI  17
ST GEORGE      CLEAR     46  12  25 CALM      30.00S
KANAB          MOCLDY    32  14  47 NE6       30.07S WCI  26

$$

REGIONAL REPORTS     COLORADO/ARIZONA

CITY           SKY/WX    TMP DP  RH WIND       PRES   REMARKS
CRAIG, CO      CLOUDY    26  20  77 CALM      30.06F
GRAND JUNCTION CLOUDY    36  21  54 CALM      30.08S
RIFLE          CLOUDY    29  23  78 CALM      30.10S
MONTROSE       CLOUDY    33  20  58 SE5       30.10F WCI  29
CORTEZ         PTCLDY    27  19  72 NE3       30.08S
PAGE, AZ       NOT AVBL
GRAND CANYON   MOCLDY    25  13  60 CALM      30.08R
KINGMAN        CLOUDY    48  22  35 SE10      29.98F
FLAGSTAFF      MOCLDY    27  14  58 CALM      30.09F

$$

REGIONAL REPORTS    NEVADA/IDAHO/WYOMING

CITY           SKY/WX    TMP DP  RH WIND       PRES   REMARKS
LAS VEGAS, NV  CLOUDY    56  21  25 W7        29.89F
ELY            PTCLDY    30  14  51 SE9       30.00S WCI  22
ELKO           MOCLDY    32  27  81 CALM      29.98S
POCATELLO, ID  FOG       19  18  95 CALM      30.04F VSB 3/4
BURLEY         FOG       28  24  85 NW3       30.01R VSB 1/4
EVANSTON, WY   PTCLDY    30  15  53 SW5       30.04S WCI  25
ROCK SPRINGS   MOCLDY    32  16  51 SW9       30.03S WCI  24

$$



USA.gov is the U.S. government's official web portal to all federal, state and local government web resources and services.